Starlink 1585

operational
NORAD ID: 46117 Int'l Des: 2020-057 Owner: SPXS Country: US Constellation: starlink
LEOCIRCULARSTARLINK_TYPE

About Starlink 1585

Description loading...

Live Position

Loading 3D Globe...

Upcoming Passes

Altitude History

Altitude vs Time

uPlot chart will show altitude changes over time

Two-Line Element Set

1 46117U 20057A 25304.33336806 .00027650 00000-0 68715-3 0 9999
2 46117 53.0552 154.7146 0001464 103.9083 297.4620 15.40127244 5755
Epoch: Oct 31, 2025 • Age: 11 hours

Current Status

Altitude 459.0 km
Velocity 7.64 km/s
Sub-Earth Point -38.34°S, 158.5°E
Launch Date Aug 18, 2020
Age 5.2 years
Type internet

Technical Details

Classification Payload
Mass 260.00 kg
Dry Mass 248.00 kg
Total Mass 260.00 kg
Length 0.20 m
Diameter 2.80 m
Span 9.00 m
Shape Box + pan
Manufacturer SPXS
Bus Type Starlink
Phase Status In Orbit
Owner/State SPXS/US

Large Constellations

Loading constellations...